Wetterdaten: Montag, 13.04.2015
Datum Zeit Auen-Temp. Temp gefhlt Luftfeuchte Luftdruck Regen Wind Richtung Richtung Taupunkt Windben
13.04.2015 00:00 7,2 C 6,7 C 70 % 1027,9 hPa 0,0 mm 0,0 km/h (0 Bft) S 180 2,1 C 0,0 km/h (0 Bft)
13.04.2015 00:05 7,0 C 6,6 C 70 % 1028,0 hPa 0,0 mm 0,0 km/h (0 Bft) SO 135 1,9 C 0,0 km/h (0 Bft)
13.04.2015 00:10 6,8 C 6,4 C 71 % 1028,0 hPa 0,0 mm 0,0 km/h (0 Bft) SO 135 1,9 C 0,0 km/h (0 Bft)
13.04.2015 00:15 6,6 C 6,2 C 71 % 1028,0 hPa 0,0 mm 0,0 km/h (0 Bft) SO 135 1,7 C 0,0 km/h (0 Bft)
13.04.2015 00:20 6,7 C 6,3 C 72 % 1028,0 hPa 0,0 mm 0,0 km/h (0 Bft) SO 135 2,0 C 0,0 km/h (0 Bft)
13.04.2015 00:25 6,5 C 6,1 C 72 % 1028,0 hPa 0,0 mm 0,0 km/h (0 Bft) SO 135 1,8 C 0,0 km/h (0 Bft)
13.04.2015 00:30 6,4 C 6,0 C 72 % 1028,0 hPa 0,0 mm 0,0 km/h (0 Bft) SO 135 1,7 C 0,0 km/h (0 Bft)
13.04.2015 00:35 6,5 C 6,1 C 72 % 1028,0 hPa 0,0 mm 0,0 km/h (0 Bft) SO 135 1,8 C 0,0 km/h (0 Bft)
13.04.2015 00:40 6,3 C 5,9 C 72 % 1028,0 hPa 0,0 mm 0,0 km/h (0 Bft) SO 135 1,6 C 0,0 km/h (0 Bft)
13.04.2015 00:45 5,6 C 5,3 C 73 % 1027,9 hPa 0,0 mm 0,0 km/h (0 Bft) SO 135 1,2 C 0,0 km/h (0 Bft)
13.04.2015 00:50 5,8 C 5,4 C 73 % 1027,9 hPa 0,0 mm 0,0 km/h (0 Bft) SO 135 1,3 C 0,0 km/h (0 Bft)
13.04.2015 00:55 5,7 C 5,2 C 74 % 1027,9 hPa 0,0 mm 0,0 km/h (0 Bft) NW 315 1,4 C 0,0 km/h (0 Bft)
13.04.2015 01:00 5,5 C 5,1 C 74 % 1027,9 hPa 0,0 mm 0,0 km/h (0 Bft) NW 315 1,2 C 0,0 km/h (0 Bft)
13.04.2015 01:05 5,1 C 4,7 C 74 % 1027,9 hPa 0,0 mm 0,0 km/h (0 Bft) NW 315 0,9 C 0,0 km/h (0 Bft)
13.04.2015 01:10 5,1 C 4,7 C 74 % 1027,9 hPa 0,0 mm 0,0 km/h (0 Bft) NW 315 0,9 C 0,0 km/h (0 Bft)
13.04.2015 01:15 4,9 C 4,6 C 75 % 1027,9 hPa 0,0 mm 0,0 km/h (0 Bft) N-NW 337 0,8 C 0,0 km/h (0 Bft)
13.04.2015 01:20 4,9 C 4,6 C 75 % 1027,9 hPa 0,0 mm 0,0 km/h (0 Bft) N-NW 337 0,8 C 0,0 km/h (0 Bft)
13.04.2015 01:25 5,4 C 4,9 C 77 % 1027,8 hPa 0,0 mm 0,0 km/h (0 Bft) NO 45 1,7 C 0,0 km/h (0 Bft)
13.04.2015 01:30 4,9 C 4,6 C 76 % 1027,8 hPa 0,0 mm 0,0 km/h (0 Bft) NO 45 1,0 C 0,0 km/h (0 Bft)
13.04.2015 01:35 4,8 C 4,5 C 76 % 1027,8 hPa 0,0 mm 0,0 km/h (0 Bft) O-NO 67 0,9 C 0,0 km/h (0 Bft)
13.04.2015 01:40 4,8 C 4,4 C 77 % 1027,8 hPa 0,0 mm 0,0 km/h (0 Bft) O-NO 67 1,1 C 0,0 km/h (0 Bft)
13.04.2015 01:45 4,5 C 4,2 C 77 % 1028,0 hPa 0,0 mm 0,0 km/h (0 Bft) O-NO 67 0,8 C 0,0 km/h (0 Bft)
13.04.2015 01:50 4,8 C 4,4 C 78 % 1028,0 hPa 0,0 mm 0,0 km/h (0 Bft) O-NO 67 1,3 C 0,0 km/h (0 Bft)
13.04.2015 01:55 4,9 C 4,4 C 78 % 1028,0 hPa 0,0 mm 0,0 km/h (0 Bft) O-NO 67 1,4 C 0,0 km/h (0 Bft)
13.04.2015 02:00 4,9 C 4,4 C 78 % 1028,0 hPa 0,0 mm 0,0 km/h (0 Bft) O-NO 67 1,4 C 0,0 km/h (0 Bft)
13.04.2015 02:05 4,9 C 4,5 C 79 % 1027,7 hPa 0,0 mm 0,0 km/h (0 Bft) O 90 1,6 C 0,0 km/h (0 Bft)
13.04.2015 02:10 4,9 C 4,4 C 79 % 1027,7 hPa 0,0 mm 0,0 km/h (0 Bft) O-NO 67 1,6 C 0,0 km/h (0 Bft)
13.04.2015 02:15 4,7 C 4,3 C 79 % 1027,7 hPa 0,0 mm 0,0 km/h (0 Bft) O 90 1,4 C 0,0 km/h (0 Bft)
13.04.2015 02:20 4,6 C 4,3 C 79 % 1027,7 hPa 0,0 mm 0,0 km/h (0 Bft) NO 45 1,3 C 0,0 km/h (0 Bft)
13.04.2015 02:25 5,0 C 4,6 C 79 % 1027,6 hPa 0,0 mm 0,0 km/h (0 Bft) O-NO 67 1,7 C 0,0 km/h (0 Bft)
13.04.2015 02:30 4,7 C 4,4 C 79 % 1027,6 hPa 0,0 mm 0,0 km/h (0 Bft) N-NO 22 1,4 C 0,0 km/h (0 Bft)
13.04.2015 02:35 4,7 C 4,4 C 79 % 1027,6 hPa 0,0 mm 0,0 km/h (0 Bft) N-NO 22 1,4 C 0,0 km/h (0 Bft)
13.04.2015 02:40 4,6 C 4,3 C 79 % 1027,6 hPa 0,0 mm 0,0 km/h (0 Bft) N-NO 22 1,3 C 0,0 km/h (0 Bft)
13.04.2015 02:45 4,6 C 4,2 C 79 % 1027,4 hPa 0,0 mm 0,0 km/h (0 Bft) O-NO 67 1,3 C 0,0 km/h (0 Bft)
13.04.2015 02:50 4,3 C 4,0 C 79 % 1027,4 hPa 0,0 mm 0,0 km/h (0 Bft) O-NO 67 1,0 C 0,0 km/h (0 Bft)
13.04.2015 02:55 4,6 C 4,2 C 80 % 1027,4 hPa 0,0 mm 0,0 km/h (0 Bft) O-NO 67 1,5 C 0,0 km/h (0 Bft)
13.04.2015 03:00 4,2 C 3,9 C 79 % 1027,4 hPa 0,0 mm 0,0 km/h (0 Bft) O-NO 67 0,9 C 0,0 km/h (0 Bft)
13.04.2015 03:05 4,5 C 4,1 C 80 % 1027,4 hPa 0,0 mm 0,0 km/h (0 Bft) N-NO 22 1,4 C 0,0 km/h (0 Bft)
13.04.2015 03:10 4,4 C 4,0 C 81 % 1027,4 hPa 0,0 mm 0,0 km/h (0 Bft) O-NO 67 1,4 C 0,0 km/h (0 Bft)
13.04.2015 03:15 4,1 C 3,8 C 80 % 1027,4 hPa 0,0 mm 0,0 km/h (0 Bft) O-SO 112 1,0 C 0,0 km/h (0 Bft)
13.04.2015 03:20 4,2 C 3,9 C 81 % 1027,4 hPa 0,0 mm 0,0 km/h (0 Bft) N-NO 22 1,2 C 0,0 km/h (0 Bft)
13.04.2015 03:25 3,9 C 3,6 C 80 % 1027,3 hPa 0,0 mm 0,0 km/h (0 Bft) O-NO 67 0,8 C 0,0 km/h (0 Bft)
13.04.2015 03:30 3,7 C 3,4 C 80 % 1027,3 hPa 0,0 mm 0,0 km/h (0 Bft) O 90 0,6 C 0,0 km/h (0 Bft)
13.04.2015 03:35 3,8 C 3,4 C 81 % 1027,3 hPa 0,0 mm 0,0 km/h (0 Bft) O 90 0,8 C 0,0 km/h (0 Bft)
13.04.2015 03:40 3,7 C 3,4 C 81 % 1027,3 hPa 0,0 mm 0,0 km/h (0 Bft) NO 45 0,7 C 0,0 km/h (0 Bft)
13.04.2015 03:45 3,6 C 3,3 C 81 % 1027,3 hPa 0,0 mm 0,0 km/h (0 Bft) O-NO 67 0,7 C 0,0 km/h (0 Bft)
13.04.2015 03:50 3,3 C 3,1 C 80 % 1027,3 hPa 0,0 mm 0,0 km/h (0 Bft) N-NW 337 0,2 C 0,0 km/h (0 Bft)
13.04.2015 03:55 3,6 C 3,2 C 82 % 1027,3 hPa 0,0 mm 0,0 km/h (0 Bft) NO 45 0,8 C 0,0 km/h (0 Bft)
13.04.2015 04:00 3,5 C 3,1 C 82 % 1027,3 hPa 0,0 mm 0,0 km/h (0 Bft) O-SO 112 0,7 C 0,0 km/h (0 Bft)
13.04.2015 04:05 3,1 C 2,8 C 82 % 1027,6 hPa 0,0 mm 0,0 km/h (0 Bft) O-NO 67 0,3 C 0,0 km/h (0 Bft)
13.04.2015 04:10 3,4 C 3,0 C 82 % 1027,6 hPa 0,0 mm 0,0 km/h (0 Bft) O 90 0,6 C 0,0 km/h (0 Bft)
13.04.2015 04:15 3,0 C 2,7 C 82 % 1027,6 hPa 0,0 mm 0,0 km/h (0 Bft) N-NO 22 0,2 C 0,0 km/h (0 Bft)
13.04.2015 04:20 3,0 C 2,7 C 82 % 1027,6 hPa 0,0 mm 0,0 km/h (0 Bft) O-SO 112 0,2 C 0,0 km/h (0 Bft)
13.04.2015 04:25 3,0 C 2,6 C 82 % 1027,2 hPa 0,0 mm 0,0 km/h (0 Bft) NW 315 0,2 C 0,0 km/h (0 Bft)
13.04.2015 04:30 3,2 C 2,8 C 82 % 1027,2 hPa 0,0 mm 0,0 km/h (0 Bft) SO 135 0,4 C 0,0 km/h (0 Bft)
13.04.2015 04:35 3,5 C 3,0 C 83 % 1027,2 hPa 0,0 mm 0,0 km/h (0 Bft) O-SO 112 0,9 C 0,0 km/h (0 Bft)
13.04.2015 04:40 3,2 C 2,8 C 83 % 1027,2 hPa 0,0 mm 0,0 km/h (0 Bft) S 180 0,6 C 0,0 km/h (0 Bft)
13.04.2015 04:45 4,0 C 3,5 C 79 % 1027,3 hPa 0,0 mm 0,0 km/h (0 Bft) O-SO 112 0,7 C 0,0 km/h (0 Bft)
13.04.2015 04:50 3,9 C 3,4 C 85 % 1027,3 hPa 0,0 mm 0,0 km/h (0 Bft) S-SO 157 1,6 C 0,0 km/h (0 Bft)
13.04.2015 04:55 3,4 C 3,1 C 84 % 1027,3 hPa 0,0 mm 0,0 km/h (0 Bft) S 180 1,0 C 0,0 km/h (0 Bft)
13.04.2015 05:00 4,0 C 3,6 C 79 % 1027,3 hPa 0,0 mm 0,0 km/h (0 Bft) S-SO 157 0,7 C 0,0 km/h (0 Bft)
13.04.2015 05:05 4,0 C 3,6 C 85 % 1027,3 hPa 0,0 mm 0,0 km/h (0 Bft) N-NO 22 1,7 C 0,0 km/h (0 Bft)
13.04.2015 05:10 3,8 C 3,5 C 85 % 1027,3 hPa 0,0 mm 0,0 km/h (0 Bft) SO 135 1,5 C 0,0 km/h (0 Bft)
13.04.2015 05:15 4,0 C 3,7 C 85 % 1027,3 hPa 0,0 mm 0,3 km/h (0 Bft) S 180 1,7 C 3,1 km/h (1 Bft)
13.04.2015 05:20 4,7 C 4,3 C 79 % 1027,3 hPa 0,0 mm 0,8 km/h (0 Bft) N-NO 22 1,4 C 0,0 km/h (0 Bft)
13.04.2015 05:25 3,9 C 3,7 C 84 % 1027,3 hPa 0,0 mm 0,8 km/h (0 Bft) N-NW 337 1,4 C 7,3 km/h (2 Bft)
13.04.2015 05:30 3,2 C 3,1 C 83 % 1027,3 hPa 0,0 mm 0,5 km/h (0 Bft) SW 225 0,6 C 6,5 km/h (2 Bft)
13.04.2015 05:35 3,4 C 3,3 C 83 % 1027,3 hPa 0,0 mm 1,3 km/h (1 Bft) N-NO 22 0,8 C 8,0 km/h (2 Bft)
13.04.2015 05:40 3,0 C 2,9 C 82 % 1027,3 hPa 0,0 mm 1,3 km/h (1 Bft) O-NO 67 0,2 C 0,0 km/h (0 Bft)
13.04.2015 05:45 3,0 C 2,7 C 83 % 1027,4 hPa 0,0 mm 0,0 km/h (0 Bft) S 180 0,4 C 0,0 km/h (0 Bft)
13.04.2015 05:50 4,1 C 3,6 C 79 % 1027,4 hPa 0,0 mm 1,8 km/h (1 Bft) W-SW 247 0,8 C 6,7 km/h (2 Bft)
13.04.2015 05:55 5,7 C 5,1 C 79 % 1027,4 hPa 0,0 mm 6,0 km/h (2 Bft) S-SW 202 2,3 C 19,4 km/h (3 Bft)
13.04.2015 06:00 6,2 C 5,6 C 82 % 1027,4 hPa 0,0 mm 7,8 km/h (2 Bft) S-SO 157 3,4 C 4,4 km/h (1 Bft)
13.04.2015 06:05 6,2 C 5,8 C 80 % 1027,6 hPa 0,0 mm 8,0 km/h (2 Bft) SW 225 3,0 C 5,7 km/h (1 Bft)
13.04.2015 06:10 6,8 C 6,3 C 78 % 1027,6 hPa 0,0 mm 8,3 km/h (2 Bft) S 180 3,2 C 12,7 km/h (3 Bft)
13.04.2015 06:15 7,1 C 6,6 C 76 % 1027,6 hPa 0,0 mm 9,8 km/h (2 Bft) S 180 3,2 C 10,9 km/h (2 Bft)
13.04.2015 06:20 7,2 C 6,7 C 74 % 1027,6 hPa 0,0 mm 10,1 km/h (2 Bft) S-SW 202 2,9 C 16,6 km/h (3 Bft)
13.04.2015 06:25 6,9 C 6,6 C 73 % 1027,8 hPa 0,0 mm 9,8 km/h (2 Bft) S-SW 202 2,4 C 11,9 km/h (2 Bft)
13.04.2015 06:30 6,9 C 6,6 C 72 % 1027,8 hPa 0,0 mm 9,3 km/h (2 Bft) S 180 2,2 C 10,9 km/h (2 Bft)
13.04.2015 06:35 6,4 C 6,3 C 72 % 1027,8 hPa 0,0 mm 7,5 km/h (2 Bft) S 180 1,7 C 6,5 km/h (2 Bft)
13.04.2015 06:40 5,5 C 6,3 C 73 % 1027,8 hPa 0,0 mm 6,0 km/h (2 Bft) O-NO 67 1,1 C 2,8 km/h (1 Bft)
13.04.2015 06:45 4,3 C 5,8 C 73 % 1027,9 hPa 0,0 mm 2,6 km/h (1 Bft) O-SO 112 -0,1 C 0,0 km/h (0 Bft)
13.04.2015 06:50 4,3 C 5,2 C 75 % 1027,9 hPa 0,0 mm 1,8 km/h (1 Bft) S 180 0,3 C 7,3 km/h (2 Bft)
13.04.2015 06:55 3,8 C 5,0 C 76 % 1027,9 hPa 0,0 mm 1,6 km/h (1 Bft) O-NO 67 -0,0 C 0,0 km/h (0 Bft)
13.04.2015 07:00 3,6 C 4,4 C 76 % 1027,9 hPa 0,0 mm 0,8 km/h (0 Bft) O-NO 67 -0,2 C 0,0 km/h (0 Bft)
13.04.2015 07:05 3,5 C 3,8 C 76 % 1028,1 hPa 0,0 mm 0,0 km/h (0 Bft) N-NO 22 -0,3 C 0,0 km/h (0 Bft)
13.04.2015 07:10 3,6 C 3,6 C 77 % 1028,1 hPa 0,0 mm 0,0 km/h (0 Bft) S 180 -0,0 C 0,0 km/h (0 Bft)
13.04.2015 07:15 3,6 C 3,9 C 78 % 1028,1 hPa 0,0 mm 0,0 km/h (0 Bft) O-SO 112 0,1 C 0,0 km/h (0 Bft)
13.04.2015 07:20 3,7 C 4,0 C 78 % 1028,1 hPa 0,0 mm 0,0 km/h (0 Bft) O-NO 67 0,2 C 0,0 km/h (0 Bft)
13.04.2015 07:25 3,8 C 4,2 C 78 % 1028,3 hPa 0,0 mm 0,0 km/h (0 Bft) SO 135 0,3 C 0,0 km/h (0 Bft)
13.04.2015 07:30 3,9 C 4,5 C 76 % 1028,3 hPa 0,0 mm 0,3 km/h (0 Bft) S 180 0,1 C 4,4 km/h (1 Bft)
13.04.2015 07:35 4,1 C 5,6 C 76 % 1028,3 hPa 0,0 mm 0,5 km/h (0 Bft) W-NW 292 0,3 C 0,0 km/h (0 Bft)
13.04.2015 07:40 4,2 C 5,8 C 76 % 1028,3 hPa 0,0 mm 0,5 km/h (0 Bft) S 180 0,4 C 0,0 km/h (0 Bft)
13.04.2015 07:45 4,6 C 8,2 C 76 % 1028,4 hPa 0,0 mm 0,0 km/h (0 Bft) S 180 0,7 C 0,0 km/h (0 Bft)
13.04.2015 07:50 4,9 C 10,2 C 76 % 1028,4 hPa 0,0 mm 0,0 km/h (0 Bft) SW 225 1,0 C 0,0 km/h (0 Bft)
13.04.2015 07:55 5,6 C 12,0 C 77 % 1028,4 hPa 0,0 mm 0,0 km/h (0 Bft) NW 315 1,9 C 0,0 km/h (0 Bft)
13.04.2015 08:00 6,0 C 12,7 C 76 % 1028,4 hPa 0,0 mm 0,3 km/h (0 Bft) SW 225 2,1 C 0,0 km/h (0 Bft)
13.04.2015 08:05 6,9 C 13,3 C 76 % 1028,6 hPa 0,0 mm 0,8 km/h (0 Bft) W-SW 247 3,0 C 3,9 km/h (1 Bft)
13.04.2015 08:10 7,7 C 13,2 C 76 % 1028,6 hPa 0,0 mm 2,3 km/h (1 Bft) W 270 3,7 C 8,5 km/h (2 Bft)
13.04.2015 08:15 9,3 C 14,2 C 74 % 1028,6 hPa 0,0 mm 4,4 km/h (1 Bft) W-SW 247 4,9 C 5,4 km/h (1 Bft)
13.04.2015 08:20 9,7 C 13,9 C 73 % 1028,6 hPa 0,0 mm 4,4 km/h (1 Bft) W 270 5,1 C 9,8 km/h (2 Bft)
13.04.2015 08:25 10,3 C 14,2 C 71 % 1029,1 hPa 0,0 mm 5,4 km/h (1 Bft) NW 315 5,3 C 3,1 km/h (1 Bft)
13.04.2015 08:30 10,8 C 15,0 C 70 % 1029,1 hPa 0,0 mm 7,5 km/h (2 Bft) W-SW 247 5,6 C 11,4 km/h (2 Bft)
13.04.2015 08:35 11,1 C 15,3 C 69 % 1029,1 hPa 0,0 mm 6,2 km/h (2 Bft) W 270 5,6 C 10,1 km/h (2 Bft)
13.04.2015 08:40 11,3 C 15,2 C 68 % 1029,1 hPa 0,0 mm 6,0 km/h (2 Bft) W 270 5,6 C 10,4 km/h (2 Bft)
13.04.2015 08:45 11,7 C 15,8 C 68 % 1029,2 hPa 0,0 mm 6,0 km/h (2 Bft) W-NW 292 6,0 C 6,0 km/h (2 Bft)
13.04.2015 08:50 11,8 C 15,6 C 67 % 1029,2 hPa 0,0 mm 6,7 km/h (2 Bft) NW 315 5,9 C 10,9 km/h (2 Bft)
13.04.2015 08:55 11,7 C 15,2 C 66 % 1029,2 hPa 0,0 mm 7,5 km/h (2 Bft) S-SW 202 5,6 C 11,7 km/h (2 Bft)
13.04.2015 09:00 12,1 C 15,6 C 66 % 1029,2 hPa 0,0 mm 7,8 km/h (2 Bft) W-SW 247 5,9 C 4,7 km/h (1 Bft)
13.04.2015 09:05 12,3 C 16,5 C 65 % 1029,7 hPa 0,0 mm 7,8 km/h (2 Bft) S-SW 202 5,9 C 9,6 km/h (2 Bft)
13.04.2015 09:10 12,4 C 16,3 C 64 % 1029,7 hPa 0,0 mm 8,0 km/h (2 Bft) W 270 5,8 C 10,9 km/h (2 Bft)
13.04.2015 09:15 12,7 C 16,5 C 64 % 1029,7 hPa 0,0 mm 8,8 km/h (2 Bft) W-SW 247 6,1 C 12,7 km/h (3 Bft)
13.04.2015 09:20 12,6 C 16,2 C 63 % 1029,7 hPa 0,0 mm 10,1 km/h (2 Bft) W 270 5,7 C 14,5 km/h (3 Bft)
13.04.2015 09:25 12,7 C 16,5 C 63 % 1030,0 hPa 0,0 mm 10,6 km/h (2 Bft) SW 225 5,8 C 15,0 km/h (3 Bft)
13.04.2015 09:30 12,7 C 16,8 C 63 % 1030,0 hPa 0,0 mm 10,1 km/h (2 Bft) W-NW 292 5,8 C 12,2 km/h (2 Bft)
13.04.2015 09:35 13,0 C 16,8 C 61 % 1030,0 hPa 0,0 mm 10,1 km/h (2 Bft) S-SW 202 5,7 C 20,5 km/h (4 Bft)
13.04.2015 09:40 13,0 C 16,5 C 60 % 1030,0 hPa 0,0 mm 11,7 km/h (2 Bft) W-SW 247 5,4 C 8,5 km/h (2 Bft)
13.04.2015 09:45 12,7 C 15,8 C 62 % 1030,1 hPa 0,0 mm 11,1 km/h (2 Bft) W 270 5,6 C 25,6 km/h (4 Bft)
13.04.2015 09:50 12,7 C 15,8 C 61 % 1030,1 hPa 0,0 mm 10,4 km/h (2 Bft) W-SW 247 5,4 C 10,1 km/h (2 Bft)
13.04.2015 09:55 12,8 C 15,7 C 62 % 1030,1 hPa 0,0 mm 10,6 km/h (2 Bft) S 180 5,7 C 10,4 km/h (2 Bft)
13.04.2015 10:00 12,9 C 15,9 C 61 % 1030,1 hPa 0,0 mm 9,8 km/h (2 Bft) NW 315 5,6 C 9,3 km/h (2 Bft)
13.04.2015 10:05 13,0 C 16,2 C 60 % 1030,1 hPa 0,0 mm 10,1 km/h (2 Bft) W 270 5,4 C 14,5 km/h (3 Bft)
13.04.2015 10:10 13,0 C 16,0 C 60 % 1030,1 hPa 0,0 mm 9,3 km/h (2 Bft) SW 225 5,4 C 7,8 km/h (2 Bft)
13.04.2015 10:15 13,3 C 16,5 C 60 % 1030,1 hPa 0,0 mm 8,3 km/h (2 Bft) W 270 5,7 C 8,0 km/h (2 Bft)
13.04.2015 10:20 13,6 C 17,0 C 60 % 1030,1 hPa 0,0 mm 9,8 km/h (2 Bft) W 270 6,0 C 15,8 km/h (3 Bft)
13.04.2015 10:25 13,4 C 16,5 C 59 % 1030,3 hPa 0,0 mm 10,6 km/h (2 Bft) SW 225 5,6 C 10,6 km/h (2 Bft)
13.04.2015 10:30 13,1 C 16,0 C 59 % 1030,3 hPa 0,0 mm 11,1 km/h (2 Bft) W 270 5,3 C 19,2 km/h (3 Bft)
13.04.2015 10:35 12,9 C 15,3 C 59 % 1030,3 hPa 0,0 mm 11,9 km/h (2 Bft) SW 225 5,1 C 14,0 km/h (3 Bft)
13.04.2015 10:40 12,9 C 15,1 C 59 % 1030,3 hPa 0,0 mm 11,4 km/h (2 Bft) W 270 5,1 C 9,6 km/h (2 Bft)
13.04.2015 10:45 13,2 C 15,6 C 59 % 1030,5 hPa 0,0 mm 10,1 km/h (2 Bft) W-NW 292 5,4 C 5,7 km/h (1 Bft)
13.04.2015 10:50 13,6 C 16,5 C 59 % 1030,5 hPa 0,0 mm 11,7 km/h (2 Bft) W-SW 247 5,7 C 18,4 km/h (3 Bft)
13.04.2015 10:55 13,6 C 16,7 C 59 % 1030,5 hPa 0,0 mm 11,7 km/h (2 Bft) W 270 5,7 C 32,9 km/h (5 Bft)
13.04.2015 11:00 13,9 C 17,4 C 58 % 1030,5 hPa 0,0 mm 13,5 km/h (3 Bft) W-NW 292 5,8 C 16,3 km/h (3 Bft)
13.04.2015 11:05 14,1 C 17,3 C 58 % 1030,4 hPa 0,0 mm 14,8 km/h (3 Bft) W 270 6,0 C 23,6 km/h (4 Bft)
13.04.2015 11:10 14,1 C 17,5 C 58 % 1030,4 hPa 0,0 mm 14,2 km/h (3 Bft) NW 315 6,0 C 15,5 km/h (3 Bft)
13.04.2015 11:15 14,4 C 18,3 C 58 % 1030,4 hPa 0,0 mm 13,2 km/h (3 Bft) W 270 6,2 C 16,3 km/h (3 Bft)
13.04.2015 11:20 14,7 C 19,0 C 57 % 1030,4 hPa 0,0 mm 12,2 km/h (2 Bft) W 270 6,3 C 17,1 km/h (3 Bft)
13.04.2015 11:25 15,1 C 19,1 C 57 % 1030,5 hPa 0,0 mm 14,0 km/h (3 Bft) W 270 6,6 C 12,9 km/h (3 Bft)
13.04.2015 11:30 14,6 C 18,7 C 57 % 1030,5 hPa 0,0 mm 14,8 km/h (3 Bft) W-SW 247 6,2 C 23,0 km/h (4 Bft)
13.04.2015 11:35 14,6 C 18,0 C 57 % 1030,5 hPa 0,0 mm 12,7 km/h (3 Bft) W 270 6,2 C 13,2 km/h (3 Bft)
13.04.2015 11:40 14,5 C 18,2 C 56 % 1030,5 hPa 0,0 mm 12,2 km/h (2 Bft) W-NW 292 5,8 C 14,5 km/h (3 Bft)
13.04.2015 11:45 14,2 C 16,9 C 57 % 1030,4 hPa 0,0 mm 12,2 km/h (2 Bft) W 270 5,8 C 16,3 km/h (3 Bft)
13.04.2015 11:50 14,1 C 16,5 C 57 % 1030,4 hPa 0,0 mm 13,5 km/h (3 Bft) W 270 5,7 C 17,1 km/h (3 Bft)
13.04.2015 11:55 14,1 C 16,3 C 57 % 1030,4 hPa 0,0 mm 12,9 km/h (3 Bft) W-NW 292 5,7 C 10,9 km/h (2 Bft)
13.04.2015 12:00 14,3 C 16,8 C 57 % 1030,4 hPa 0,0 mm 11,1 km/h (2 Bft) N-NW 337 5,9 C 16,8 km/h (3 Bft)
13.04.2015 12:05 14,1 C 16,5 C 57 % 1030,2 hPa 0,0 mm 10,6 km/h (2 Bft) W 270 5,7 C 11,9 km/h (2 Bft)
13.04.2015 12:10 13,9 C 16,0 C 57 % 1030,2 hPa 0,0 mm 11,4 km/h (2 Bft) NW 315 5,5 C 14,2 km/h (3 Bft)
13.04.2015 12:15 14,4 C 16,4 C 57 % 1030,2 hPa 0,0 mm 10,6 km/h (2 Bft) NW 315 6,0 C 9,8 km/h (2 Bft)
13.04.2015 12:20 14,5 C 16,8 C 57 % 1030,2 hPa 0,0 mm 9,8 km/h (2 Bft) NW 315 6,1 C 9,8 km/h (2 Bft)
13.04.2015 12:25 14,9 C 17,5 C 57 % 1030,1 hPa 0,0 mm 10,9 km/h (2 Bft) W-SW 247 6,5 C 9,3 km/h (2 Bft)
13.04.2015 12:30 15,4 C 18,8 C 57 % 1030,1 hPa 0,0 mm 10,9 km/h (2 Bft) W 270 6,9 C 8,3 km/h (2 Bft)
13.04.2015 12:35 15,5 C 19,6 C 56 % 1030,1 hPa 0,0 mm 9,8 km/h (2 Bft) NW 315 6,8 C 12,9 km/h (3 Bft)
13.04.2015 12:40 15,3 C 19,3 C 56 % 1030,1 hPa 0,0 mm 11,7 km/h (2 Bft) W 270 6,6 C 14,8 km/h (3 Bft)
13.04.2015 12:45 15,2 C 18,2 C 56 % 1030,2 hPa 0,0 mm 13,2 km/h (3 Bft) N-NW 337 6,5 C 21,5 km/h (4 Bft)
13.04.2015 12:50 14,7 C 17,2 C 56 % 1030,2 hPa 0,0 mm 12,7 km/h (3 Bft) W-SW 247 6,0 C 13,5 km/h (3 Bft)
13.04.2015 12:55 14,1 C 15,8 C 57 % 1030,2 hPa 0,0 mm 11,4 km/h (2 Bft) W 270 5,7 C 11,4 km/h (2 Bft)
13.04.2015 13:00 14,5 C 16,0 C 57 % 1030,2 hPa 0,0 mm 11,1 km/h (2 Bft) W 270 6,1 C 20,7 km/h (4 Bft)
13.04.2015 13:05 15,2 C 17,3 C 56 % 1029,7 hPa 0,0 mm 11,1 km/h (2 Bft) W 270 6,5 C 10,4 km/h (2 Bft)
13.04.2015 13:10 15,4 C 18,2 C 55 % 1029,7 hPa 0,0 mm 11,4 km/h (2 Bft) NW 315 6,4 C 8,5 km/h (2 Bft)
13.04.2015 13:15 15,4 C 18,2 C 55 % 1029,7 hPa 0,0 mm 12,2 km/h (2 Bft) NW 315 6,4 C 15,8 km/h (3 Bft)
13.04.2015 13:20 15,1 C 17,1 C 55 % 1029,7 hPa 0,0 mm 15,5 km/h (3 Bft) W-NW 292 6,1 C 16,8 km/h (3 Bft)
13.04.2015 13:25 14,9 C 16,4 C 55 % 1029,9 hPa 0,0 mm 16,8 km/h (3 Bft) W 270 5,9 C 12,9 km/h (3 Bft)
13.04.2015 13:30 15,1 C 16,3 C 55 % 1029,9 hPa 0,0 mm 15,0 km/h (3 Bft) W 270 6,1 C 15,5 km/h (3 Bft)
13.04.2015 13:35 15,1 C 16,3 C 56 % 1029,9 hPa 0,0 mm 12,7 km/h (3 Bft) W 270 6,4 C 23,0 km/h (4 Bft)
13.04.2015 13:40 15,4 C 16,9 C 54 % 1029,9 hPa 0,0 mm 14,5 km/h (3 Bft) SW 225 6,1 C 15,0 km/h (3 Bft)
13.04.2015 13:45 16,0 C 18,3 C 51 % 1029,9 hPa 0,0 mm 16,8 km/h (3 Bft) W 270 5,9 C 28,7 km/h (4 Bft)
13.04.2015 13:50 16,3 C 19,2 C 50 % 1029,9 hPa 0,0 mm 16,6 km/h (3 Bft) W-SW 247 5,9 C 24,1 km/h (4 Bft)
13.04.2015 13:55 16,8 C 20,3 C 50 % 1029,9 hPa 0,0 mm 15,0 km/h (3 Bft) W-SW 247 6,3 C 33,7 km/h (5 Bft)
13.04.2015 14:00 17,0 C 20,7 C 50 % 1029,9 hPa 0,0 mm 15,3 km/h (3 Bft) W 270 6,5 C 24,1 km/h (4 Bft)
13.04.2015 14:05 17,3 C 21,0 C 49 % 1029,8 hPa 0,0 mm 17,3 km/h (3 Bft) NW 315 6,5 C 38,8 km/h (5 Bft)
13.04.2015 14:10 17,3 C 20,7 C 49 % 1029,8 hPa 0,0 mm 19,2 km/h (3 Bft) W 270 6,5 C 23,0 km/h (4 Bft)
13.04.2015 14:15 17,3 C 20,8 C 48 % 1029,8 hPa 0,0 mm 19,9 km/h (4 Bft) W 270 6,2 C 46,3 km/h (6 Bft)
13.04.2015 14:20 17,2 C 20,3 C 48 % 1029,8 hPa 0,0 mm 19,9 km/h (4 Bft) O 90 6,1 C 22,5 km/h (4 Bft)
13.04.2015 14:25 17,1 C 20,3 C 47 % 1029,7 hPa 0,0 mm 19,2 km/h (3 Bft) W 270 5,7 C 13,5 km/h (3 Bft)
13.04.2015 14:30 16,9 C 20,1 C 47 % 1029,7 hPa 0,0 mm 17,9 km/h (3 Bft) W-SW 247 5,5 C 15,8 km/h (3 Bft)
13.04.2015 14:35 16,7 C 19,5 C 48 % 1029,7 hPa 0,0 mm 17,6 km/h (3 Bft) SW 225 5,6 C 22,3 km/h (4 Bft)
13.04.2015 14:40 16,8 C 19,3 C 48 % 1029,7 hPa 0,0 mm 18,9 km/h (3 Bft) W-SW 247 5,7 C 15,5 km/h (3 Bft)
13.04.2015 14:45 17,0 C 19,8 C 48 % 1029,6 hPa 0,0 mm 19,7 km/h (3 Bft) W 270 5,9 C 15,5 km/h (3 Bft)
13.04.2015 14:50 17,1 C 20,1 C 47 % 1029,6 hPa 0,0 mm 17,3 km/h (3 Bft) W-SW 247 5,7 C 22,0 km/h (4 Bft)
13.04.2015 14:55 16,8 C 19,8 C 47 % 1029,6 hPa 0,0 mm 17,9 km/h (3 Bft) W-SW 247 5,4 C 16,1 km/h (3 Bft)
13.04.2015 15:00 17,0 C 19,9 C 46 % 1029,6 hPa 0,0 mm 19,2 km/h (3 Bft) W 270 5,3 C 19,9 km/h (4 Bft)
13.04.2015 15:05 17,2 C 20,3 C 46 % 1029,2 hPa 0,0 mm 18,9 km/h (3 Bft) SW 225 5,5 C 22,8 km/h (4 Bft)
13.04.2015 15:10 17,0 C 20,1 C 46 % 1029,2 hPa 0,0 mm 19,9 km/h (4 Bft) W-SW 247 5,3 C 34,4 km/h (5 Bft)
13.04.2015 15:15 16,9 C 19,9 C 47 % 1029,2 hPa 0,0 mm 18,6 km/h (3 Bft) S-SW 202 5,5 C 21,0 km/h (4 Bft)
13.04.2015 15:20 17,0 C 19,8 C 46 % 1029,2 hPa 0,0 mm 19,2 km/h (3 Bft) SW 225 5,3 C 15,0 km/h (3 Bft)
13.04.2015 15:25 16,7 C 19,1 C 47 % 1028,8 hPa 0,0 mm 20,5 km/h (4 Bft) SW 225 5,3 C 48,2 km/h (6 Bft)
13.04.2015 15:30 16,8 C 19,2 C 47 % 1028,8 hPa 0,0 mm 19,2 km/h (3 Bft) W-SW 247 5,4 C 10,9 km/h (2 Bft)
13.04.2015 15:35 16,9 C 19,5 C 46 % 1028,8 hPa 0,0 mm 18,1 km/h (3 Bft) W-SW 247 5,2 C 25,9 km/h (4 Bft)
13.04.2015 15:40 16,9 C 19,5 C 47 % 1028,8 hPa 0,0 mm 19,2 km/h (3 Bft) W-NW 292 5,5 C 24,3 km/h (4 Bft)
13.04.2015 15:45 17,2 C 19,9 C 46 % 1028,6 hPa 0,0 mm 21,0 km/h (4 Bft) W 270 5,5 C 34,4 km/h (5 Bft)
13.04.2015 15:50 17,2 C 19,9 C 46 % 1028,6 hPa 0,0 mm 20,2 km/h (4 Bft) W-SW 247 5,5 C 36,0 km/h (5 Bft)
13.04.2015 15:55 17,1 C 19,9 C 44 % 1028,6 hPa 0,0 mm 21,8 km/h (4 Bft) W-SW 247 4,8 C 39,9 km/h (6 Bft)
13.04.2015 16:00 17,3 C 20,0 C 45 % 1028,6 hPa 0,0 mm 21,2 km/h (4 Bft) NW 315 5,3 C 34,2 km/h (5 Bft)
13.04.2015 16:05 17,0 C 19,6 C 45 % 1028,3 hPa 0,0 mm 22,8 km/h (4 Bft) W-SW 247 5,0 C 23,3 km/h (4 Bft)
13.04.2015 16:10 17,0 C 19,6 C 45 % 1028,3 hPa 0,0 mm 23,8 km/h (4 Bft) W 270 5,0 C 51,8 km/h (7 Bft)
13.04.2015 16:15 16,5 C 18,9 C 44 % 1028,3 hPa 0,0 mm 22,5 km/h (4 Bft) W-SW 247 4,2 C 35,0 km/h (5 Bft)
13.04.2015 16:20 16,6 C 18,4 C 45 % 1028,3 hPa 0,0 mm 19,7 km/h (3 Bft) W-NW 292 4,6 C 29,8 km/h (5 Bft)
13.04.2015 16:25 16,6 C 18,8 C 44 % 1028,2 hPa 0,0 mm 18,1 km/h (3 Bft) SW 225 4,3 C 23,0 km/h (4 Bft)
13.04.2015 16:30 16,8 C 19,3 C 45 % 1028,2 hPa 0,0 mm 16,3 km/h (3 Bft) NW 315 4,8 C 12,9 km/h (3 Bft)
13.04.2015 16:35 16,9 C 19,6 C 45 % 1028,2 hPa 0,0 mm 15,8 km/h (3 Bft) W 270 4,9 C 22,8 km/h (4 Bft)
13.04.2015 16:40 16,8 C 19,5 C 44 % 1028,2 hPa 0,0 mm 18,4 km/h (3 Bft) W 270 4,5 C 26,4 km/h (4 Bft)
13.04.2015 16:45 16,6 C 18,7 C 43 % 1028,2 hPa 0,0 mm 21,0 km/h (4 Bft) W-SW 247 4,0 C 13,7 km/h (3 Bft)
13.04.2015 16:50 16,7 C 18,5 C 43 % 1028,2 hPa 0,0 mm 20,5 km/h (4 Bft) W-SW 247 4,1 C 24,9 km/h (4 Bft)
13.04.2015 16:55 16,7 C 18,5 C 43 % 1028,2 hPa 0,0 mm 17,6 km/h (3 Bft) W-SW 247 4,1 C 12,7 km/h (3 Bft)
13.04.2015 17:00 16,5 C 18,3 C 43 % 1028,2 hPa 0,0 mm 17,6 km/h (3 Bft) W 270 3,9 C 18,1 km/h (3 Bft)
13.04.2015 17:05 16,3 C 18,0 C 43 % 1028,0 hPa 0,0 mm 17,3 km/h (3 Bft) NW 315 3,7 C 9,3 km/h (2 Bft)
13.04.2015 17:10 16,3 C 17,8 C 43 % 1028,0 hPa 0,0 mm 16,6 km/h (3 Bft) NW 315 3,7 C 18,1 km/h (3 Bft)
13.04.2015 17:15 16,4 C 18,0 C 44 % 1028,0 hPa 0,0 mm 14,2 km/h (3 Bft) W-SW 247 4,1 C 10,4 km/h (2 Bft)
13.04.2015 17:20 16,4 C 18,1 C 44 % 1028,0 hPa 0,0 mm 14,0 km/h (3 Bft) W 270 4,1 C 12,4 km/h (3 Bft)
13.04.2015 17:25 16,4 C 18,0 C 44 % 1027,9 hPa 0,0 mm 14,0 km/h (3 Bft) NW 315 4,1 C 16,1 km/h (3 Bft)
13.04.2015 17:30 16,3 C 17,8 C 44 % 1027,9 hPa 0,0 mm 13,5 km/h (3 Bft) W 270 4,0 C 9,3 km/h (2 Bft)
13.04.2015 17:35 16,2 C 17,4 C 43 % 1027,9 hPa 0,0 mm 14,2 km/h (3 Bft) W 270 3,6 C 17,3 km/h (3 Bft)
13.04.2015 17:40 16,1 C 17,2 C 43 % 1027,9 hPa 0,0 mm 13,5 km/h (3 Bft) W 270 3,5 C 14,0 km/h (3 Bft)
13.04.2015 17:45 16,1 C 17,3 C 43 % 1027,9 hPa 0,0 mm 13,2 km/h (3 Bft) W-SW 247 3,5 C 15,5 km/h (3 Bft)
13.04.2015 17:50 16,1 C 17,3 C 43 % 1027,9 hPa 0,0 mm 15,0 km/h (3 Bft) W 270 3,5 C 19,7 km/h (3 Bft)
13.04.2015 17:55 16,0 C 17,1 C 44 % 1027,9 hPa 0,0 mm 15,3 km/h (3 Bft) W-SW 247 3,8 C 16,3 km/h (3 Bft)
13.04.2015 18:00 15,8 C 16,8 C 45 % 1027,9 hPa 0,0 mm 14,8 km/h (3 Bft) NW 315 3,9 C 17,6 km/h (3 Bft)
13.04.2015 18:05 15,6 C 16,4 C 46 % 1027,6 hPa 0,0 mm 13,7 km/h (3 Bft) NW 315 4,0 C 15,3 km/h (3 Bft)
13.04.2015 18:10 15,7 C 16,3 C 46 % 1027,6 hPa 0,0 mm 12,2 km/h (2 Bft) W 270 4,1 C 25,9 km/h (4 Bft)
13.04.2015 18:15 15,6 C 16,2 C 45 % 1027,6 hPa 0,0 mm 13,5 km/h (3 Bft) W-SW 247 3,7 C 22,0 km/h (4 Bft)
13.04.2015 18:20 15,5 C 16,0 C 45 % 1027,6 hPa 0,0 mm 15,3 km/h (3 Bft) W 270 3,6 C 27,2 km/h (4 Bft)
13.04.2015 18:25 15,1 C 15,6 C 45 % 1027,8 hPa 0,0 mm 14,8 km/h (3 Bft) W 270 3,3 C 16,3 km/h (3 Bft)
13.04.2015 18:30 15,1 C 15,3 C 45 % 1027,8 hPa 0,0 mm 14,0 km/h (3 Bft) W-SW 247 3,3 C 7,3 km/h (2 Bft)
13.04.2015 18:35 15,1 C 15,2 C 45 % 1027,8 hPa 0,0 mm 12,2 km/h (2 Bft) W-NW 292 3,3 C 14,5 km/h (3 Bft)
13.04.2015 18:40 15,1 C 15,3 C 46 % 1027,8 hPa 0,0 mm 11,4 km/h (2 Bft) W 270 3,6 C 17,6 km/h (3 Bft)
13.04.2015 18:45 15,1 C 15,4 C 46 % 1027,8 hPa 0,0 mm 10,4 km/h (2 Bft) W-SW 247 3,6 C 11,1 km/h (2 Bft)
13.04.2015 18:50 14,9 C 15,3 C 46 % 1027,8 hPa 0,0 mm 10,9 km/h (2 Bft) W-NW 292 3,4 C 21,2 km/h (4 Bft)
13.04.2015 18:55 14,6 C 15,0 C 47 % 1027,8 hPa 0,0 mm 10,6 km/h (2 Bft) S-SW 202 3,4 C 10,9 km/h (2 Bft)
13.04.2015 19:00 14,4 C 14,7 C 48 % 1027,8 hPa 0,0 mm 10,4 km/h (2 Bft) W-NW 292 3,5 C 12,2 km/h (2 Bft)
13.04.2015 19:05 14,1 C 14,4 C 48 % 1027,6 hPa 0,0 mm 7,8 km/h (2 Bft) W 270 3,3 C 7,5 km/h (2 Bft)
13.04.2015 19:10 14,1 C 14,1 C 49 % 1027,6 hPa 0,0 mm 8,0 km/h (2 Bft) SW 225 3,6 C 6,0 km/h (2 Bft)
13.04.2015 19:15 13,8 C 13,9 C 49 % 1027,6 hPa 0,0 mm 8,8 km/h (2 Bft) W 270 3,3 C 13,7 km/h (3 Bft)
13.04.2015 19:20 13,7 C 13,7 C 49 % 1027,6 hPa 0,0 mm 8,0 km/h (2 Bft) W-SW 247 3,2 C 6,2 km/h (2 Bft)
13.04.2015 19:25 13,7 C 13,7 C 50 % 1027,3 hPa 0,0 mm 7,0 km/h (2 Bft) W-SW 247 3,5 C 7,3 km/h (2 Bft)
13.04.2015 19:30 13,6 C 13,7 C 50 % 1027,3 hPa 0,0 mm 5,4 km/h (1 Bft) SW 225 3,4 C 6,0 km/h (2 Bft)
13.04.2015 19:35 13,6 C 13,6 C 50 % 1027,3 hPa 0,0 mm 7,0 km/h (2 Bft) SW 225 3,4 C 15,8 km/h (3 Bft)
13.04.2015 19:40 13,5 C 13,5 C 51 % 1027,3 hPa 0,0 mm 8,8 km/h (2 Bft) W-SW 247 3,6 C 12,7 km/h (3 Bft)
13.04.2015 19:45 13,3 C 13,3 C 51 % 1027,5 hPa 0,0 mm 8,3 km/h (2 Bft) W-NW 292 3,4 C 5,2 km/h (1 Bft)
13.04.2015 19:50 13,2 C 13,1 C 51 % 1027,5 hPa 0,0 mm 8,0 km/h (2 Bft) W-SW 247 3,3 C 13,2 km/h (3 Bft)
13.04.2015 19:55 13,2 C 13,1 C 51 % 1027,5 hPa 0,0 mm 8,3 km/h (2 Bft) NW 315 3,3 C 5,2 km/h (1 Bft)
13.04.2015 20:00 13,2 C 13,1 C 52 % 1027,5 hPa 0,0 mm 8,3 km/h (2 Bft) W-SW 247 3,6 C 7,5 km/h (2 Bft)
13.04.2015 20:05 12,9 C 13,0 C 52 % 1027,7 hPa 0,0 mm 5,7 km/h (1 Bft) W-NW 292 3,3 C 10,9 km/h (2 Bft)
13.04.2015 20:10 12,8 C 12,8 C 53 % 1027,7 hPa 0,0 mm 4,7 km/h (1 Bft) W 270 3,5 C 3,9 km/h (1 Bft)
13.04.2015 20:15 12,8 C 12,8 C 53 % 1027,7 hPa 0,0 mm 4,9 km/h (1 Bft) W 270 3,5 C 5,7 km/h (1 Bft)
13.04.2015 20:20 12,9 C 12,8 C 54 % 1027,7 hPa 0,0 mm 5,7 km/h (1 Bft) NW 315 3,8 C 7,3 km/h (2 Bft)
13.04.2015 20:25 12,8 C 12,8 C 54 % 1027,8 hPa 0,0 mm 6,5 km/h (2 Bft) W-SW 247 3,7 C 9,3 km/h (2 Bft)
13.04.2015 20:30 12,7 C 12,7 C 54 % 1027,8 hPa 0,0 mm 6,5 km/h (2 Bft) W-SW 247 3,6 C 7,5 km/h (2 Bft)
13.04.2015 20:35 12,6 C 12,6 C 55 % 1027,8 hPa 0,0 mm 6,7 km/h (2 Bft) W-SW 247 3,8 C 5,7 km/h (1 Bft)
13.04.2015 20:40 12,6 C 12,6 C 55 % 1027,8 hPa 0,0 mm 7,3 km/h (2 Bft) W 270 3,8 C 7,8 km/h (2 Bft)
13.04.2015 20:45 12,3 C 12,3 C 55 % 1027,9 hPa 0,0 mm 7,0 km/h (2 Bft) W 270 3,5 C 6,7 km/h (2 Bft)
13.04.2015 20:50 12,1 C 12,1 C 55 % 1027,9 hPa 0,0 mm 5,7 km/h (1 Bft) SW 225 3,3 C 8,0 km/h (2 Bft)
13.04.2015 20:55 11,9 C 11,9 C 55 % 1027,9 hPa 0,0 mm 5,4 km/h (1 Bft) W-SW 247 3,2 C 3,9 km/h (1 Bft)
13.04.2015 21:00 11,7 C 11,7 C 56 % 1027,9 hPa 0,0 mm 5,4 km/h (1 Bft) SW 225 3,2 C 6,0 km/h (2 Bft)
13.04.2015 21:05 11,8 C 11,6 C 57 % 1028,2 hPa 0,0 mm 4,9 km/h (1 Bft) S-SW 202 3,6 C 7,5 km/h (2 Bft)
13.04.2015 21:10 11,7 C 11,5 C 57 % 1028,2 hPa 0,0 mm 6,0 km/h (2 Bft) S-SW 202 3,5 C 7,8 km/h (2 Bft)
13.04.2015 21:15 11,7 C 11,5 C 57 % 1028,2 hPa 0,0 mm 6,7 km/h (2 Bft) SW 225 3,5 C 6,5 km/h (2 Bft)
13.04.2015 21:20 11,5 C 11,4 C 57 % 1028,2 hPa 0,0 mm 7,0 km/h (2 Bft) SW 225 3,3 C 12,7 km/h (3 Bft)
13.04.2015 21:25 11,7 C 11,5 C 57 % 1028,5 hPa 0,0 mm 7,5 km/h (2 Bft) SW 225 3,5 C 9,6 km/h (2 Bft)
13.04.2015 21:30 11,7 C 11,5 C 57 % 1028,5 hPa 0,0 mm 8,0 km/h (2 Bft) W-SW 247 3,5 C 8,3 km/h (2 Bft)
13.04.2015 21:35 11,6 C 11,5 C 57 % 1028,5 hPa 0,0 mm 8,0 km/h (2 Bft) W-SW 247 3,4 C 9,3 km/h (2 Bft)
13.04.2015 21:40 11,5 C 11,4 C 57 % 1028,5 hPa 0,0 mm 8,5 km/h (2 Bft) N 360 3,3 C 9,8 km/h (2 Bft)
13.04.2015 21:45 11,6 C 11,4 C 57 % 1028,4 hPa 0,0 mm 9,3 km/h (2 Bft) S-SW 202 3,4 C 9,6 km/h (2 Bft)
13.04.2015 21:50 11,6 C 11,4 C 57 % 1028,4 hPa 0,0 mm 9,6 km/h (2 Bft) S 180 3,4 C 8,3 km/h (2 Bft)
13.04.2015 21:55 11,6 C 11,4 C 57 % 1028,4 hPa 0,0 mm 9,6 km/h (2 Bft) SW 225 3,4 C 9,8 km/h (2 Bft)
13.04.2015 22:00 11,5 C 11,4 C 57 % 1028,4 hPa 0,0 mm 9,1 km/h (2 Bft) S-SW 202 3,3 C 10,1 km/h (2 Bft)
13.04.2015 22:05 11,5 C 11,4 C 58 % 1028,7 hPa 0,0 mm 8,5 km/h (2 Bft) SW 225 3,5 C 8,5 km/h (2 Bft)
13.04.2015 22:10 11,4 C 11,3 C 58 % 1028,7 hPa 0,0 mm 7,5 km/h (2 Bft) SW 225 3,4 C 5,7 km/h (1 Bft)
13.04.2015 22:15 11,2 C 11,2 C 58 % 1028,7 hPa 0,0 mm 6,0 km/h (2 Bft) W-SW 247 3,2 C 6,0 km/h (2 Bft)
13.04.2015 22:20 11,3 C 11,2 C 58 % 1028,7 hPa 0,0 mm 6,0 km/h (2 Bft) S-SO 157 3,3 C 11,1 km/h (2 Bft)
13.04.2015 22:25 11,1 C 11,0 C 58 % 1028,7 hPa 0,0 mm 6,7 km/h (2 Bft) SW 225 3,2 C 8,0 km/h (2 Bft)
13.04.2015 22:30 11,0 C 10,9 C 58 % 1028,7 hPa 0,0 mm 6,7 km/h (2 Bft) SW 225 3,1 C 9,6 km/h (2 Bft)
13.04.2015 22:35 11,0 C 10,9 C 58 % 1028,7 hPa 0,0 mm 7,3 km/h (2 Bft) SW 225 3,1 C 8,5 km/h (2 Bft)
13.04.2015 22:40 11,0 C 10,9 C 58 % 1028,7 hPa 0,0 mm 7,3 km/h (2 Bft) S 180 3,1 C 6,5 km/h (2 Bft)
13.04.2015 22:45 10,3 C 10,5 C 58 % 1028,8 hPa 0,0 mm 4,7 km/h (1 Bft) W-SW 247 2,4 C 0,0 km/h (0 Bft)
13.04.2015 22:50 9,3 C 9,9 C 59 % 1028,8 hPa 0,0 mm 2,3 km/h (1 Bft) S-SO 157 1,7 C 0,0 km/h (0 Bft)
13.04.2015 22:55 8,9 C 8,9 C 60 % 1028,8 hPa 0,0 mm 0,0 km/h (0 Bft) S-SO 157 1,6 C 0,0 km/h (0 Bft)
13.04.2015 23:00 8,9 C 8,8 C 62 % 1028,8 hPa 0,0 mm 0,0 km/h (0 Bft) S-SO 157 2,0 C 0,0 km/h (0 Bft)
13.04.2015 23:05 9,4 C 9,0 C 63 % 1028,8 hPa 0,0 mm 0,0 km/h (0 Bft) S 180 2,7 C 0,0 km/h (0 Bft)
13.04.2015 23:10 9,4 C 9,1 C 63 % 1028,8 hPa 0,0 mm 0,3 km/h (0 Bft) S 180 2,7 C 0,0 km/h (0 Bft)
13.04.2015 23:15 8,7 C 8,6 C 63 % 1028,8 hPa 0,0 mm 0,3 km/h (0 Bft) S-SO 157 2,1 C 0,0 km/h (0 Bft)
13.04.2015 23:20 8,5 C 8,4 C 64 % 1028,8 hPa 0,0 mm 0,3 km/h (0 Bft) S-SO 157 2,1 C 0,0 km/h (0 Bft)
13.04.2015 23:25 8,7 C 8,5 C 66 % 1029,0 hPa 0,0 mm 0,3 km/h (0 Bft) S-SO 157 2,7 C 0,0 km/h (0 Bft)
13.04.2015 23:30 9,0 C 8,7 C 67 % 1029,0 hPa 0,0 mm 0,3 km/h (0 Bft) SO 135 3,2 C 2,8 km/h (1 Bft)
13.04.2015 23:35 9,3 C 8,9 C 66 % 1029,0 hPa 0,0 mm 0,3 km/h (0 Bft) S-SO 157 3,3 C 0,0 km/h (0 Bft)
13.04.2015 23:40 9,5 C 9,1 C 65 % 1029,0 hPa 0,0 mm 0,5 km/h (0 Bft) S-SO 157 3,3 C 0,0 km/h (0 Bft)
13.04.2015 23:45 8,5 C 8,4 C 66 % 1029,2 hPa 0,0 mm 0,8 km/h (0 Bft) N-NW 337 2,5 C 0,0 km/h (0 Bft)
13.04.2015 23:50 8,0 C 8,0 C 65 % 1029,2 hPa 0,0 mm 0,8 km/h (0 Bft) N-NW 337 1,8 C 0,0 km/h (0 Bft)
13.04.2015 23:55 8,3 C 8,0 C 66 % 1029,2 hPa 0,0 mm 0,0 km/h (0 Bft) O-NO 67 2,3 C 0,0 km/h (0 Bft)
_ Min-Zeit 05:45 04:25 17:50 04:40 - 23:55 - - 07:05 23:55
Minimum _ 3,0 C 2,6 C 43 % 1027,2 hPa - 0,0 km/h (0 Bft) - - -0,3 C 0,0 km/h (0 Bft)
_ Max-Zeit 16:00 14:05 05:15 11:40 23:55 16:10 - - 12:30 16:10
Maximum _ 17,3 C 21,0 C 85 % 1030,5 hPa 0,0 mm 23,8 km/h
W (4 Bft)
- - 6,9 C 51,8 km/h
W (7 Bft)
Durchschnitt _ 10,7 C 11,9 C 62 % 1028,5 hPa #0,0 mm 7,7 km/h (2 Bft) W - 3,4 C 9,8 km/h (2 Bft)